Weather in Yorkton

Canada     51°12′34″N   102°27′46″W
temp.,
°C
wind,
m/s
gust,
m/s
humid.,
%
clouds,
%
prec.,
mm/h
press.,
hPa
HPBL,
m
8 may, sat
sat800:00+5e61252100 0.0 1022420
03:00+3e51062100 0.0 1022292
06:00+2e41062100 0.0 1023344
09:00+6e684560 0.0 1022757
12:00+10ese683328 0.0 10211501
15:00+12ese662968 0.0 10211830
18:00+11ese563266 0.0 10211765
21:00+7e510485 0.0 1023298
9 may, sun
sun900:00+3e410484 0.0 1025293
03:00+1e23570 0.0 102651
06:00+1ene25610 0.0 1028136
09:00+6ene45470 0.0 1027713
12:00+10ne44354 0.0 10251458
15:00+12ne44295 0.0 10241911
18:00+12nne44285 0.0 10241914
21:00+7e37455 0.0 1026146
10 may, mon
mon1000:00+4se365432 0.0 1027139
03:00+2sse336169 0.0 102857
06:00+2s236255 0.0 102858
09:00+8s234469 0.0 1027534
12:00+13ssw223342 0.0 10261573
15:00+15sw122770 0.0 10242090
18:00+15sse222796 0.0 10232313
21:00+10s354097 0.0 102469
11 may, tue
tue1100:00+8s374586 0.0 1024117
03:00+7ssw365072 0.0 102498
06:00+7ssw365186 0.0 1025102
09:00+14sw453656 0.0 1024559
12:00+17sw452625 0.0 10222577
15:00+19ssw452394 0.0 10213047
18:00+18ssw55245 0.0 10202759
21:00+13s47385 0.0 1021106
12 may, wed
wed1200:00+11s474258 0.0 1021110
03:00+9ssw354976 0.0 102177
06:00+9ssw36577 0.0 1021115
09:00+15ssw45415 0.0 1020522
12:00+17ssw5633100 0.0 10182409
15:00+19ssw673388 0.0 10172818
18:00+18ssw56408 0.0 10151523
21:00+12sse6127394 0.8 1016274